CAPE
929 918 954 658 623 957 706 570 371 242 170 515 788 736 697 944 645 650 627 483 549 417 380 349 744 671 424 554 672 441 414 297 234 195 79 67 3 2 2 0 0 0 0 0 0 0 0 0 0 0 0 0 1 0 1 1 0 0 0 0 0 0 0 1 2 2 3 2 3 5 10 11 15 19 29 36 44 37 45 33 31 37 78 57 67
1071 1026 900 590 681 837 1026 966 836 313 574 895 825 916 930 1035 1250 1354 588 508 204 388 586 544 568 651 617 366 372 567 514 238 335 190 156 48 13 17 1 0 4 0 0 0 0 0 2 1 0 0 0 0 0 0 0 0 0 0 0 0 0 0 0 0 1 2 3 6 4 4 7 7 11 12 14 16 36 54 50 53 30 26 95 114 93
1166 1193 1020 821 883 1027 1050 971 928 751 416 641 1086 1013 1212 1188 2163 1281 1146 809 546 444 380 567 668 411 618 441 348 436 445 530 335 139 119 125 7 3 2 0 0 0 0 26 4 31 5 9 1 1 0 0 0 0 0 0 0 0 0 0 0 0 0 0 1 0 2 5 7 4 7 8 9 11 13 16 24 22 21 24 22 25 106 101 105
1290 1327 1268 1119 1023 1162 834 889 678 780 609 470 853 1190 1177 1082 1632 1844 1506 1120 590 466 431 665 496 403 487 465 275 618 381 227 241 124 50 29 0 0 0 0 0 0 0 60 65 12 73 6 0 0 0 0 0 0 1 3 0 0 0 0 0 0 0 0 0 1 1 2 1 3 6 8 8 10 10 10 12 11 12 12 26 87 98 116 89
1728 1411 1422 1392 1190 1113 1020 532 738 511 482 466 500 1231 1295 1455 1318 1293 1354 1002 878 460 431 593 424 644 427 411 663 305 324 338 242 139 1 1 0 0 0 0 0 126 125 49 211 92 29 7 2 159 89 2 4 44 27 3 0 0 0 0 0 0 0 0 1 6 2 3 2 4 5 6 6 10 13 14 12 11 10 20 47 48 81 82 105
1583 1410 1350 1362 1438 1315 1128 843 830 647 616 350 548 1288 1367 1097 1147 1623 1338 750 589 549 712 616 755 893 964 907 676 596 711 391 213 255 41 0 0 0 0 0 32 47 192 286 428 228 125 111 265 374 419 312 104 126 38 2 0 0 0 0 0 1 9 34 45 24 24 8 2 4 5 4 6 20 18 16 16 12 15 18 47 39 60 82 114
1677 1826 1726 1542 1376 1358 991 1100 1263 610 532 561 1256 1199 1217 1100 1243 1222 1353 878 596 589 651 498 811 901 1182 1097 810 741 681 536 129 299 182 98 0 0 0 58 70 37 53 252 673 589 259 197 388 367 422 426 346 122 54 6 1 8 1 1 5 17 40 79 141 129 44 10 1 11 19 36 39 42 36 25 22 48 59 54 51 40 64 72 78
1567 1642 1903 1698 1555 1326 1133 1253 959 563 1038 1100 1015 938 799 996 966 1176 898 520 689 478 530 700 800 886 1103 1278 1241 1076 837 474 244 109 211 623 933 919 924 215 181 140 325 64 136 368 506 490 511 472 521 456 486 392 214 34 31 20 11 22 39 76 70 122 160 196 178 112 103 45 65 86 75 97 83 89 84 78 82 100 74 55 63 96 88
1680 1525 1783 1608 1493 1416 1484 1586 1410 1638 1659 1782 1304 1118 1053 948 1125 1017 784 420 641 661 764 739 726 906 1102 1183 1218 1048 861 626 319 308 331 509 744 475 490 783 1078 491 713 329 179 255 476 578 476 540 488 480 510 404 342 242 225 223 83 55 72 68 117 183 206 213 248 164 135 111 109 135 104 116 81 92 97 118 124 113 130 92 65 51 16
1837 1667 1597 1618 1501 1450 1566 1646 1352 1677 1965 1774 1497 1305 1065 1041 1078 1015 1235 1053 1149 1055 1209 745 365 360 485 831 1106 1112 1054 978 327 315 183 455 614 747 705 983 985 957 1034 847 674 517 211 575 700 611 574 497 552 459 521 433 414 339 273 152 141 207 234 221 226 219 262 246 252 243 198 145 108 104 70 42 35 48 96 81 64 56 20 8 5
1825 1707 1610 1574 1383 1427 1397 1354 1634 1383 1756 1295 1211 1194 1131 1146 1507 1140 1626 1047 1688 1336 834 414 288 264 264 689 651 1295 1095 1040 511 293 270 86 356 585 522 429 530 512 751 539 626 653 279 302 523 428 384 515 398 532 466 377 333 392 375 242 297 297 220 299 348 237 254 314 304 261 202 155 113 121 108 18 0 0 2 2 1 3 5 7 5
1241 1540 1626 1638 1456 1428 1499 1406 1389 1332 1512 1412 1149 1173 1321 1032 1546 1839 1743 1456 1017 744 434 498 443 290 236 327 460 745 826 668 638 332 208 276 212 167 179 386 378 310 472 410 712 725 527 437 418 337 347 440 470 537 571 501 582 543 664 489 463 424 346 299 324 267 273 319 208 215 194 166 123 85 60 30 2 0 0 0 0 3 5 7 2
1434 1416 1679 1751 1485 1626 1556 1578 1589 1525 1412 1314 1417 1428 1330 1312 2074 1466 1381 1003 806 832 721 522 421 280 209 301 490 453 564 870 650 399 242 167 327 220 667 400 487 441 520 489 631 1059 792 617 448 581 409 428 467 636 678 620 661 648 527 454 463 238 478 307 498 369 317 186 124 101 194 150 116 58 4 2 2 2 2 2 2 2 1 1 0
1307 1498 1727 1532 1607 1689 1754 1720 1886 1598 1358 1379 1437 1388 1294 1803 1219 934 1112 981 899 551 583 162 301 264 271 484 542 839 754 1097 978 517 210 198 401 270 556 600 231 373 318 447 765 754 804 692 767 418 532 374 350 520 570 529 638 623 506 500 566 291 383 510 224 282 195 83 68 42 88 155 46 6 3 2 1 1 2 4 4 0 0 0 0
1248 1184 1654 1745 1758 1690 1637 1705 1393 1241 1291 1271 1327 1185 1134 1470 953 762 956 695 568 716 611 559 523 437 198 259 399 458 764 565 616 737 921 1167 652 389 317 351 219 337 270 123 87 628 582 419 758 462 508 462 356 353 443 384 473 712 698 543 440 482 628 534 311 188 16 16 4 36 152 116 12 6 3 2 1 2 3 2 1 1 0 0 1
1068 1158 1645 1703 1691 1510 1322 1423 1316 1268 1328 1244 1175 1143 1082 1339 1071 896 968 692 532 545 458 393 374 309 86 231 322 198 304 371 526 520 414 1005 384 318 227 368 170 296 89 113 43 41 460 570 557 635 415 349 344 439 435 404 680 736 658 380 415 366 351 246 295 108 35 1 30 138 115 24 9 8 2 0 0 1 2 1 0 0 0 0 1
1219 1067 1367 1384 1685 1537 1362 1246 1281 1066 966 1076 1073 1052 1142 1102 1035 626 591 538 557 663 514 603 286 282 210 129 163 230 168 432 528 564 400 629 564 364 249 238 101 87 115 53 6 29 117 390 476 718 635 573 182 194 363 451 416 652 429 458 490 496 347 286 182 116 3 0 12 117 58 16 7 5 0 0 0 0 0 1 1 1 2 2 1
1500 1370 1261 1595 1764 1600 1450 1325 1337 1114 889 926 909 1010 838 1020 1006 584 503 599 692 480 600 533 389 315 345 556 1153 210 321 448 314 285 527 669 550 310 497 598 82 93 74 52 11 1 6 386 452 637 476 275 194 256 236 281 397 390 286 248 360 470 362 237 114 7 2 0 9 20 10 6 4 1 0 0 0 0 0 1 1 2 2 2 1
1900 1459 1464 1386 1504 1710 1625 1309 1397 1520 1417 1338 1092 968 1016 1038 1001 779 633 693 761 576 412 580 477 540 758 989 650 195 240 270 250 351 300 377 497 519 613 165 73 44 81 78 1 14 17 130 379 293 330 191 38 105 145 219 286 256 342 245 183 145 72 56 50 4 4 2 2 2 3 4 6 0 0 0 0 0 0 0 1 2 0 0 2
1822 1535 1595 1595 1512 1644 1674 1410 1196 1194 1069 1068 1118 1004 972 1003 1056 951 949 888 638 519 380 544 445 473 725 764 639 469 268 529 570 344 348 357 336 367 343 403 119 195 137 42 5 72 95 125 267 221 97 30 2 0 7 9 181 222 156 11 5 6 8 7 6 3 5 7 6 2 2 3 2 0 0 0 0 0 0 0 0 1 1 2 2
1800 1554 1616 1583 1549 1590 1638 1450 1110 930 950 965 1040 1182 1109 923 802 894 955 928 617 445 488 591 622 665 760 623 539 440 429 421 514 170 172 205 272 338 321 298 482 508 268 117 61 152 182 115 76 144 74 0 0 0 0 2 68 28 6 0 0 0 0 0 0 0 0 5 1 2 2 2 0 0 0 0 0 0 0 0 0 1 2 0 0
1659 1410 1166 1200 1546 1581 1649 1347 1304 1185 1114 1020 906 978 1114 926 764 771 798 795 683 650 571 634 737 625 748 706 522 453 406 424 382 351 172 481 449 221 389 228 148 237 533 422 275 259 108 65 37 45 63 17 0 0 0 17 37 23 0 0 0 0 0 0 0 0 0 0 3 2 3 2 0 0 0 0 0 0 0 0 0 0 0 0 0
1929 1823 1170 1247 1227 1153 1256 1145 1185 1087 1006 1220 1103 973 1056 1056 878 683 672 614 687 722 575 661 795 708 666 522 466 444 384 306 321 286 298 250 105 77 171 355 151 233 489 541 181 171 137 55 30 5 50 4 0 0 0 4 20 4 0 0 0 0 0 0 0 0 0 0 1 0 1 0 0 0 0 0 0 0 0 0 0 0 0 0 0
1447 1558 1794 1620 1274 1203 1130 1154 1147 1118 967 1085 1068 1022 1075 1074 971 725 614 627 658 699 695 610 727 733 589 394 378 332 318 274 454 254 248 220 190 171 211 280 334 213 429 453 391 150 182 119 32 9 28 1 0 0 0 0 0 0 0 0 0 0 0 0 0 0 0 0 0 0 0 0 0 0 0 0 0 0 0 0 0 0 0 0 0
1578 1530 1284 1606 1481 1176 1300 1432 1309 1092 991 919 960 932 948 1140 1099 874 774 725 665 654 628 609 623 592 515 434 251 247 268 398 348 247 181 259 289 332 255 64 22 221 277 403 459 218 184 173 32 0 15 3 0 0 0 0 0 0 0 0 0 0 0 0 0 0 0 0 0 0 0 0 0 0 0 0 0 0 0 0 0 0 0 0 0
1404 1511 1434 1506 1513 1495 1185 1224 939 815 873 942 964 755 868 1136 1076 918 784 701 657 643 604 627 576 574 512 443 242 276 260 221 309 249 207 256 173 182 247 41 95 58 200 262 436 304 185 164 96 9 12 7 2 0 0 0 0 0 0 0 0 0 0 0 0 0 0 0 0 0 0 0 0 0 0 0 0 0 0 0 0 0 0 0 0
1153 1176 1390 1586 1725 1609 1166 917 939 1105 1003 917 778 764 787 738 816 758 734 697 629 589 573 499 541 565 655 495 344 278 418 380 298 217 193 159 133 232 119 57 12 0 182 268 350 299 245 206 160 93 11 4 0 0 0 0 0 0 0 0 0 0 0 0 0 0 0 0 0 0 0 0 0 0 0 0 0 0 0 0 0 0 0 0 0
1193 1205 1299 1400 1554 1696 1445 1200 836 751 758 745 660 662 741 566 748 837 728 608 613 642 529 472 393 527 625 634 491 407 401 397 392 254 397 384 338 308 92 97 105 113 157 220 317 301 253 390 203 174 30 8 0 0 0 0 0 0 0 0 0 0 0 0 0 0 0 0 0 0 0 0 0 0 0 0 0 0 0 0 0 0 0 0 0
1114 951 1050 1299 1357 1411 1546 1342 994 706 665 623 776 696 634 558 671 853 729 711 776 759 668 588 468 578 521 504 475 468 356 313 293 544 373 268 276 211 174 109 152 184 170 194 229 111 202 324 279 100 46 3 0 0 0 0 0 0 0 0 0 0 0 0 0 0 0 0 0 0 0 0 0 0 0 0 0 0 0 0 0 0 0 0 0
769 918 1130 1119 1229 1344 1442 1510 1233 898 733 738 740 699 666 674 786 833 831 724 678 598 678 657 587 504 485 429 406 429 403 301 250 353 211 236 251 188 179 252 197 136 109 154 176 163 236 299 250 121 16 0 0 0 0 0 0 0 0 0 0 0 0 0 0 0 0 0 0 0 0 0 0 0 0 0 0 0 0 0 0 0 0 0 0
603 718 807 835 1029 1145 1204 1290 1190 1014 1106 970 904 912 757 616 565 632 637 612 638 727 622 509 442 420 474 415 397 369 468 418 347 426 376 186 170 199 343 257 132 136 119 195 158 421 520 366 272 103 122 8 0 0 0 0 0 0 0 0 0 0 0 0 0 0 0 0 0 0 0 0 0 0 0 0 0 0 0 0 0 0 0 0 0
53 487 659 722 740 768 836 1026 992 811 726 642 623 462 500 608 690 605 656 573 547 657 610 495 404 368 415 408 444 422 534 551 532 739 673 548 215 123 318 331 188 125 151 240 196 105 16 174 194 20 14 4 0 0 0 0 0 0 0 0 0 0 0 0 0 0 0 0 0 0 0 0 0 0 0 0 0 0 0 0 0 0 0 0 0
8 6 188 532 622 696 659 692 662 655 643 611 516 488 607 424 434 557 583 534 471 428 464 377 310 312 359 328 360 402 468 399 378 611 850 698 561 383 553 329 336 175 148 114 117 86 793 929 254 55 8 2 1 0 0 0 0 0 0 0 0 0 0 0 0 0 0 0 0 0 0 0 0 0 0 0 0 0 0 0 0 0 0 0 0
7 9 8 36 300 517 490 610 652 670 695 590 477 433 388 336 510 516 553 530 412 383 395 399 449 390 346 309 275 372 419 335 431 434 683 737 599 678 356 288 238 117 115 292 227 53 520 412 198 407 15 3 5 0 0 0 0 0 0 0 0 0 0 0 0 0 0 0 0 0 0 0 0 0 0 0 0 0 0 0 0 0 0 0 0
5 3 3 4 6 295 359 400 839 616 555 632 577 493 400 305 291 343 456 551 498 407 456 481 510 466 327 222 209 226 351 366 287 296 436 804 807 803 431 368 281 149 94 201 132 30 101 116 135 100 56 0 1 0 0 0 0 0 0 0 0 0 0 0 0 0 0 0 0 0 0 0 0 0 0 0 0 0 0 0 0 0 0 0 0
4 6 4 0 0 0 62 287 336 619 499 507 467 432 313 279 452 571 561 577 608 524 470 364 317 292 224 144 205 255 292 270 232 236 420 457 848 711 606 429 300 274 152 124 113 114 124 53 108 76 97 22 22 3 47 0 0 0 0 0 0 0 0 0 0 0 0 0 0 0 0 0 0 0 0 0 0 0 0 0 0 0 0 0 0
2 1 1 2 3 3 2 3 206 342 450 459 444 401 356 451 532 523 420 315 473 485 335 282 283 272 222 250 319 367 317 258 172 204 322 421 489 752 546 524 246 231 154 149 264 341 133 63 56 136 160 113 70 29 31 0 0 0 0 0 0 0 0 0 0 0 0 0 0 0 0 0 0 0 0 0 0 0 0 0 0 0 0 0 0
1 1 0 0 2 5 9 24 74 77 386 417 379 344 382 408 408 341 356 356 384 398 335 238 254 235 365 372 403 286 336 272 154 304 439 378 400 580 562 531 366 346 226 339 306 247 206 73 5 156 243 122 75 1 27 0 0 0 0 0 0 0 0 0 0 0 0 0 0 0 0 0 0 0 0 0 0 0 0 0 0 0 0 0 0
1 1 1 0 2 4 7 31 29 76 182 274 312 322 280 293 331 340 357 347 365 375 391 323 348 258 250 305 368 348 318 373 419 404 362 474 484 460 405 425 391 246 245 218 296 262 264 157 150 150 113 15 50 36 1 0 0 0 0 0 0 0 0 0 0 0 0 0 0 0 0 0 0 0 0 0 0 0 0 0 0 0 0 0 0
2 1 1 1 1 2 4 4 29 128 149 179 197 252 1 2 203 359 338 338 396 494 449 280 335 410 360 243 277 258 261 354 323 348 256 299 403 382 500 529 623 332 248 195 162 189 199 221 144 156 0 0 40 23 0 0 0 0 0 0 0 0 0 0 0 0 0 0 0 0 0 0 0 0 0 0 0 0 0 0 0 0 0 0 0
5 1 1 0 0 1 5 8 10 77 166 202 144 2 1 1 2 2 196 331 452 456 462 520 402 324 200 192 289 305 259 328 285 355 288 214 218 302 443 591 526 414 473 315 173 167 108 111 132 123 0 0 0 0 36 0 0 0 0 0 0 0 0 0 0 0 0 0 0 0 0 0 0 0 0 0 0 0 0 0 0 0 0 0 0
0 2 1 0 1 2 3 4 8 19 66 109 4 20 242 278 38 244 274 260 168 244 293 363 404 420 431 352 266 319 323 315 376 394 385 314 256 334 453 499 554 542 575 404 180 150 147 130 134 146 41 0 0 0 23 0 0 0 0 0 0 0 0 0 0 0 0 0 0 0 0 0 0 0 0 0 0 0 0 0 0 0 0 0 0
5 5 2 0 1 0 0 2 3 11 53 122 124 149 147 17 2 201 180 223 276 304 325 324 252 252 371 427 417 427 416 325 322 329 276 253 346 386 437 568 487 686 700 186 201 176 145 165 136 130 126 0 7 0 0 1 1 0 0 0 0 0 0 0 0 0 0 0 0 0 0 0 0 0 0 0 0 0 0 0 0 0 0 0 0
8 2 1 0 0 0 1 0 4 12 16 45 125 173 194 202 193 203 162 130 42 295 314 275 251 180 388 373 386 396 350 315 281 333 272 321 414 419 450 476 450 445 277 161 201 151 140 126 106 73 81 0 18 118 0 0 3 0 0 0 0 0 0 0 0 0 0 0 0 0 0 0 0 0 0 0 0 0 0 0 0 0 0 0 0
12 12 8 3 0 1 2 1 0 2 9 5 41 86 214 214 195 178 225 202 215 293 344 302 210 284 304 348 409 389 385 510 549 374 384 453 379 410 418 414 350 264 268 287 246 215 146 144 93 167 90 31 80 17 487 256 400 9 0 0 0 0 0 0 0 0 0 0 0 0 0 0 0 0 0 0 0 0 0 0 0 0 0 0 0
6 4 1 14 4 1 2 0 2 4 3 0 1 19 104 187 186 188 160 155 93 131 250 289 267 218 324 353 357 414 311 324 416 408 433 482 502 449 388 309 293 263 280 310 280 225 162 97 67 159 109 3 63 88 168 242 60 128 4 0 0 0 0 0 0 134 88 0 0 0 0 0 0 0 0 0 0 0 0 0 0 0 0 0 0
9 9 4 6 10 14 9 7 5 6 4 0 0 0 0 0 25 154 65 144 61 94 10 10 216 59 186 187 268 267 241 244 261 346 369 349 387 376 287 301 276 269 328 335 251 181 190 174 152 111 156 224 214 201 321 277 503 623 741 351 292 400 422 262 40 27 2 0 1 0 0 0 0 0 0 0 0 0 0 0 0 0 0 0 0
8 10 11 10 6 5 7 19 12 7 6 2 0 0 0 0 0 0 19 165 156 6 8 18 15 100 264 249 267 315 369 298 196 170 227 251 326 401 251 283 297 297 299 298 326 347 321 267 276 231 230 192 298 262 368 286 198 182 111 209 74 257 59 60 61 2 3 13 48 39 14 0 0 0 0 0 0 0 0 0 0 0 0 0 0
6 0 12 10 7 4 2 5 5 5 4 1 0 0 0 0 0 0 54 25 10 10 7 10 11 65 234 306 240 192 233 220 198 199 190 182 213 209 173 168 159 154 281 255 226 348 425 401 263 346 393 223 146 174 136 201 162 224 181 32 87 216 21 0 37 59 23 2 0 0 205 21 67 0 0 0 0 0 0 0 0 0 0 0 0
2 2 2 2 2 4 1 0 3 1 1 0 0 0 0 0 0 1 4 6 54 84 34 6 4 10 95 238 292 222 213 191 186 200 154 144 162 129 179 242 224 151 192 288 314 387 333 313 424 485 447 272 240 155 154 197 206 226 143 92 88 106 119 0 0 0 16 3 0 0 18 58 34 2 0 20 24 20 29 14 0 0 1 0 0
2 2 2 3 1 6 1 0 0 0 0 0 0 0 0 0 0 1 3 5 48 137 94 66 34 6 40 131 246 238 166 194 189 217 166 96 97 174 212 237 128 114 150 287 313 262 250 257 215 189 271 409 457 361 236 179 161 171 186 204 151 92 0 17 59 12 2 10 6 14 45 24 33 29 2 19 26 5 0 0 0 0 8 3 5
Wind_Speed
27 28 25 22 21 17 18 19 16 9 14 13 16 16 16 17 18 16 15 17 17 18 19 18 15 16 16 13 12 13 13 15 19 18 nan nan nan nan nan nan nan nan nan nan nan nan nan nan nan nan nan nan nan nan nan nan nan nan nan nan nan nan nan nan nan nan nan nan nan nan nan nan nan nan nan nan nan nan nan nan nan nan nan nan nan
24 24 23 21 20 18 18 16 18 16 8 11 15 14 15 15 16 15 16 20 19 18 20 19 16 15 13 16 15 13 14 15 14 16 18 nan nan nan nan nan nan nan nan nan nan nan nan nan nan nan nan nan nan nan nan nan nan nan nan nan nan nan nan nan nan nan nan nan nan nan nan nan nan nan nan nan nan nan nan nan nan nan nan 6 nan
22 22 20 19 18 19 18 15 16 18 13 6 15 15 16 17 20 19 17 18 18 18 18 17 14 13 14 16 15 15 13 14 13 16 18 19 nan nan nan nan nan nan nan nan nan nan nan nan nan nan nan nan nan nan nan nan nan nan nan nan nan nan nan nan nan nan nan nan nan nan nan nan nan nan nan nan nan nan nan nan nan nan 3 4 5
23 21 20 20 22 21 20 18 16 17 18 10 12 17 17 18 19 21 21 20 16 12 13 16 14 13 15 14 14 18 14 14 13 17 nan nan nan nan nan nan nan nan nan nan nan nan nan nan nan nan nan nan nan nan nan nan nan nan nan nan nan nan nan nan nan nan nan nan nan nan nan nan nan nan nan nan nan nan nan nan nan nan nan 2 nan
21 20 19 18 21 22 22 21 15 17 18 14 8 17 16 18 19 20 20 20 15 12 12 18 13 15 16 14 17 15 14 15 16 16 nan nan nan nan nan nan nan 13 13 nan 15 nan nan nan nan 18 nan nan nan nan nan nan nan nan nan nan nan nan nan nan nan nan nan nan nan nan nan nan nan nan nan nan nan nan nan nan nan nan nan nan 3
23 24 22 21 20 21 21 21 18 17 18 18 15 17 17 16 16 19 20 20 15 12 14 16 16 15 14 16 16 16 13 16 16 17 nan nan nan nan nan nan nan nan 11 13 13 16 17 18 18 18 18 18 17 15 nan nan nan nan nan nan nan nan nan nan nan nan nan nan nan nan nan nan nan nan nan nan nan nan nan nan nan nan nan nan 3
24 26 27 26 24 22 21 21 19 19 17 18 18 18 15 14 16 18 20 20 16 15 15 17 17 15 14 15 16 16 14 16 14 15 17 nan nan nan nan nan nan nan nan 12 12 13 17 17 18 18 18 18 17 16 nan nan nan nan nan nan nan nan nan nan 13 12 nan nan nan nan nan nan nan nan nan nan nan nan nan nan nan nan nan nan nan
27 28 29 29 27 27 25 23 23 23 21 17 19 17 15 15 16 17 20 20 17 16 16 16 17 15 14 15 16 17 16 16 15 14 18 17 14 13 12 13 13 11 13 nan 11 12 15 15 16 18 18 17 16 16 16 nan nan nan nan nan nan nan nan 15 13 12 11 13 12 nan nan nan nan nan nan nan nan nan nan 4 nan nan nan nan nan
28 31 30 29 28 28 27 25 23 22 24 21 19 17 15 17 18 17 18 19 18 18 19 18 18 14 14 15 18 17 16 16 16 12 18 17 15 12 11 11 11 12 12 13 12 11 14 16 16 17 16 16 16 15 14 14 18 19 nan nan nan nan 17 14 12 12 12 11 11 8 8 9 11 11 nan nan nan 7 6 6 6 nan nan nan nan
30 31 30 28 28 28 27 26 25 21 21 21 20 19 18 17 17 18 19 18 17 19 23 24 26 16 10 17 16 18 16 15 17 13 15 17 16 14 11 11 11 11 10 11 11 12 11 14 17 17 16 14 13 13 14 15 15 17 19 19 20 20 18 14 12 11 11 10 10 9 9 10 10 11 nan nan nan nan nan nan nan nan nan nan nan
29 30 31 30 30 29 28 26 25 23 21 20 20 19 18 18 18 18 18 19 20 23 24 24 24 20 13 16 17 16 17 16 16 14 14 nan 17 15 12 12 12 11 11 10 10 10 12 11 11 11 12 15 13 13 13 13 14 16 19 20 20 19 18 15 11 10 9 9 10 10 10 10 11 11 11 nan nan nan nan nan nan nan nan nan nan
29 30 34 33 31 30 30 29 26 25 24 23 21 21 20 19 19 21 20 21 23 24 25 24 25 24 22 18 16 11 16 16 14 13 15 15 15 14 13 14 12 12 14 11 11 10 12 12 11 11 12 13 14 12 12 11 11 15 18 20 21 20 17 15 11 9 7 9 10 11 11 12 12 nan nan nan nan nan nan nan nan nan nan nan nan
29 32 34 34 32 30 29 30 30 28 25 25 24 23 22 21 24 24 22 21 22 25 24 25 27 27 20 17 15 11 16 16 14 13 14 15 16 11 14 14 12 10 12 11 11 11 10 11 11 10 12 12 11 12 9 9 11 13 16 19 20 19 18 14 11 9 9 9 10 11 11 12 13 nan nan nan nan nan nan nan nan nan nan nan nan
32 32 33 32 31 30 29 29 31 29 26 25 25 24 22 24 26 25 23 23 23 25 24 27 23 24 22 18 15 14 17 17 14 12 12 16 14 12 14 13 12 9 10 9 12 12 11 10 9 10 10 12 10 9 8 7 8 12 16 17 19 19 18 15 12 11 10 nan nan nan nan 13 nan nan nan nan nan nan nan nan nan nan nan nan nan
37 34 32 30 29 29 28 28 29 30 28 26 26 26 25 26 27 25 24 23 25 24 25 25 23 25 27 21 17 19 19 18 16 14 14 16 16 13 12 10 10 12 7 9 nan 12 12 11 9 11 11 12 11 10 9 9 9 11 13 17 18 20 19 17 15 11 nan nan nan nan 12 15 nan nan nan nan nan nan nan nan nan nan nan nan nan
36 36 33 30 28 27 27 26 26 27 28 27 27 27 27 28 30 28 26 25 26 26 27 27 25 29 nan 21 21 19 18 17 17 14 13 15 14 12 9 10 10 13 nan 10 nan nan 14 12 11 9 10 11 11 11 10 8 13 13 15 15 17 19 19 18 15 13 nan nan nan 12 14 nan nan nan nan nan nan nan nan nan nan nan nan nan nan
35 34 35 32 29 28 28 27 27 27 28 27 26 27 28 30 32 31 30 28 27 28 27 27 27 25 28 28 24 21 19 22 21 16 16 15 14 10 10 11 12 nan 8 nan nan nan 15 15 12 10 10 9 10 9 11 13 13 11 13 15 16 19 21 20 17 15 nan nan nan 14 nan nan nan nan nan nan nan nan nan nan nan nan nan nan nan
33 33 34 33 31 31 30 30 30 30 30 28 26 26 28 29 33 33 32 31 29 29 27 27 26 26 22 24 27 25 25 24 22 17 18 15 16 11 11 16 nan nan nan nan nan nan nan 16 13 11 11 9 8 10 12 12 13 12 12 13 17 19 20 20 19 nan nan nan nan nan nan nan nan nan nan nan nan nan nan nan nan nan nan nan nan
30 32 34 34 33 33 34 33 32 31 30 28 27 27 27 28 30 33 33 33 32 29 28 28 28 25 24 22 26 28 25 26 21 23 19 16 15 15 17 15 nan nan nan nan nan nan nan 16 15 12 11 9 nan 12 12 13 15 14 15 17 17 18 nan nan nan nan nan nan nan nan nan nan nan nan nan nan nan nan nan nan nan nan nan nan nan
31 31 32 34 35 35 37 36 34 32 31 29 27 27 26 26 27 29 32 33 34 31 29 30 29 26 26 25 26 28 25 22 23 23 21 19 16 16 16 15 9 10 12 nan nan nan nan 16 14 12 nan nan nan nan nan nan 15 15 16 nan nan nan nan nan nan nan nan nan nan nan nan nan nan nan nan nan nan nan nan nan nan nan nan nan nan
33 35 32 32 34 36 38 38 36 35 33 30 28 28 27 26 26 27 29 30 31 32 31 29 28 26 28 26 26 26 25 23 22 29 23 19 18 16 15 16 14 13 14 12 nan 17 16 15 nan 13 nan nan nan nan nan nan nan nan nan nan nan nan nan nan nan nan nan nan nan nan nan nan nan nan nan nan nan nan nan nan nan nan nan nan nan
33 38 33 30 33 34 35 35 36 36 36 32 31 30 27 25 26 27 27 27 30 32 32 29 28 25 25 28 27 27 29 26 23 24 23 19 20 19 17 16 13 13 15 14 16 18 15 nan nan nan nan nan nan nan nan nan nan nan nan nan nan nan nan nan nan nan nan nan nan nan nan nan nan nan nan nan nan nan nan nan nan nan nan nan nan
27 35 38 33 33 34 34 33 34 37 36 34 32 31 30 27 25 27 27 26 28 31 31 29 28 25 25 26 26 26 28 28 25 25 25 23 20 nan 18 14 14 15 14 15 17 18 15 nan nan nan nan nan nan nan nan nan nan nan nan nan nan nan nan nan nan nan nan nan nan nan nan nan nan nan nan nan nan nan nan nan nan nan nan nan nan
26 30 36 37 35 34 33 30 31 35 36 35 34 32 31 29 28 26 26 25 26 29 29 28 26 25 25 26 25 26 27 28 29 28 25 22 21 18 18 17 18 17 18 17 18 17 16 16 nan nan nan nan nan nan nan nan nan nan nan nan nan nan nan nan nan nan nan nan nan nan nan nan nan nan nan nan nan nan nan nan nan nan nan nan nan
26 29 32 34 40 36 36 35 32 34 35 34 32 30 30 31 30 27 28 27 27 27 27 27 26 25 25 26 27 27 25 29 33 29 27 27 26 20 19 nan nan 15 18 20 19 18 18 16 nan nan nan nan nan nan nan nan nan nan nan nan nan nan nan nan nan nan nan nan nan nan nan nan nan nan nan nan nan nan nan nan nan nan nan nan nan
25 27 30 33 36 38 39 36 36 36 37 34 33 31 31 30 29 28 28 29 27 25 25 24 25 23 24 26 26 27 27 31 32 31 28 27 25 21 19 nan nan nan 20 22 21 20 19 19 nan nan nan nan nan nan nan nan nan nan nan nan nan nan nan nan nan nan nan nan nan nan nan nan nan nan nan nan nan nan nan nan nan nan nan nan nan
24 24 27 31 35 39 39 38 37 37 37 36 34 33 31 26 27 28 27 28 27 26 24 22 22 23 24 25 25 26 30 32 32 30 30 25 24 27 25 nan nan nan 22 22 23 20 20 21 19 nan nan nan nan nan nan nan nan nan nan nan nan nan nan nan nan nan nan nan nan nan nan nan nan nan nan nan nan nan nan nan nan nan nan nan nan
22 23 26 30 34 37 39 40 39 38 38 37 36 35 38 32 28 26 25 28 27 24 23 23 21 22 24 24 25 25 28 31 31 30 30 27 26 29 nan nan 19 19 22 23 22 20 20 21 19 15 nan nan nan nan nan nan nan nan nan nan nan nan nan nan nan nan nan nan nan nan nan nan nan nan nan nan nan nan nan nan nan nan nan nan nan
22 23 25 28 31 33 34 36 37 36 36 37 34 33 32 32 30 27 25 26 25 22 23 23 22 23 25 23 23 25 27 30 32 33 32 30 27 27 28 22 19 20 26 25 22 23 19 21 19 18 nan nan nan nan nan nan nan nan nan nan nan nan nan nan nan nan nan nan nan nan nan nan nan nan nan nan nan nan nan nan nan nan nan nan nan
23 24 25 24 26 27 29 32 34 35 34 34 32 29 32 31 27 24 25 27 22 22 24 24 24 26 24 21 21 25 28 29 31 33 34 30 27 27 26 23 28 22 24 24 24 24 22 23 21 23 nan nan nan nan nan nan nan nan nan nan nan nan nan nan nan nan nan nan nan nan nan nan nan nan nan nan nan nan nan nan nan nan nan nan nan
24 24 24 23 24 24 26 28 32 32 33 31 28 27 31 31 26 23 23 26 26 24 25 25 24 25 24 23 24 25 28 28 29 32 33 32 28 29 28 25 26 21 20 25 28 24 27 25 23 24 22 nan nan nan nan nan nan nan nan nan nan nan nan nan nan nan nan nan nan nan nan nan nan nan nan nan nan nan nan nan nan nan nan nan nan
nan 22 23 22 22 23 24 25 28 31 29 25 23 24 26 25 25 25 24 26 26 25 25 26 25 24 23 22 24 25 28 29 28 32 34 32 30 29 27 27 27 29 28 26 24 23 nan 26 25 nan nan nan nan nan nan nan nan nan nan nan nan nan nan nan nan nan nan nan nan nan nan nan nan nan nan nan nan nan nan nan nan nan nan nan nan
nan nan 22 21 22 23 22 22 24 27 30 26 23 24 22 19 20 22 24 25 27 24 23 23 24 24 23 24 24 25 27 28 30 31 33 32 31 31 30 33 32 29 28 26 23 nan 25 27 28 nan nan nan nan nan nan nan nan nan nan nan nan nan nan nan nan nan nan nan nan nan nan nan nan nan nan nan nan nan nan nan nan nan nan nan nan
nan nan nan nan 23 22 23 22 25 27 27 25 24 22 19 17 16 20 22 25 25 24 23 21 24 25 26 23 23 25 27 28 29 30 31 32 32 32 31 31 32 29 35 33 27 nan 27 28 29 25 nan nan nan nan nan nan nan nan nan nan nan nan nan nan nan nan nan nan nan nan nan nan nan nan nan nan nan nan nan nan nan nan nan nan nan
nan nan nan nan nan 21 22 23 24 26 26 25 23 22 19 15 14 15 19 22 24 24 24 24 23 25 25 23 24 25 28 30 29 30 33 34 35 34 31 33 33 34 nan 35 34 nan 24 23 24 26 nan nan nan nan nan nan nan nan nan nan nan nan nan nan nan nan nan nan nan nan nan nan nan nan nan nan nan nan nan nan nan nan nan nan nan
nan nan nan nan nan nan nan 22 23 23 25 25 23 21 16 15 16 17 20 22 23 24 25 25 24 24 23 24 23 27 29 30 30 31 33 36 37 36 32 33 34 35 37 35 32 31 26 nan 24 nan nan nan nan nan nan nan nan nan nan nan nan nan nan nan nan nan nan nan nan nan nan nan nan nan nan nan nan nan nan nan nan nan nan nan nan
nan nan nan nan nan nan nan nan 23 22 24 26 24 22 24 25 21 20 20 18 20 23 24 25 26 25 22 22 24 26 29 29 28 31 34 33 35 36 31 31 32 34 36 35 34 33 33 nan nan 28 32 28 nan nan nan nan nan nan nan nan nan nan nan nan nan nan nan nan nan nan nan nan nan nan nan nan nan nan nan nan nan nan nan nan nan
nan nan nan nan nan nan nan nan nan nan 27 27 25 24 24 23 22 20 20 19 16 20 22 24 26 27 24 22 22 25 26 26 26 30 30 31 32 33 30 31 34 36 36 36 33 31 30 nan nan 31 30 28 nan nan nan nan nan nan nan nan nan nan nan nan nan nan nan nan nan nan nan nan nan nan nan nan nan nan nan nan nan nan nan nan nan
nan nan nan nan nan nan nan nan nan nan 33 31 28 27 27 26 21 21 23 21 15 20 22 22 25 26 25 23 24 24 26 28 27 27 28 29 29 30 31 33 35 37 36 32 31 30 26 27 26 33 32 nan nan nan nan nan nan nan nan nan nan nan nan nan nan nan nan nan nan nan nan nan nan nan nan nan nan nan nan nan nan nan nan nan nan
nan nan nan nan nan nan nan nan nan 37 34 33 30 27 nan nan 25 24 23 23 19 20 21 20 22 26 26 23 22 22 25 28 30 31 31 31 33 31 33 36 39 39 34 33 31 31 33 27 29 37 nan nan nan nan nan nan nan nan nan nan nan nan nan nan nan nan nan nan nan nan nan nan nan nan nan nan nan nan nan nan nan nan nan nan nan
nan nan nan nan nan nan nan nan nan nan 36 33 31 nan nan nan nan nan 24 23 22 20 19 19 19 21 27 27 22 24 26 28 27 30 32 33 34 31 32 37 37 36 34 37 35 36 35 31 33 38 nan nan nan nan nan nan nan nan nan nan nan nan nan nan nan nan nan nan nan nan nan nan nan nan nan nan nan nan nan nan nan nan nan nan nan
nan nan nan nan nan nan nan nan nan nan nan 34 nan nan 26 27 nan 25 23 24 23 21 19 18 20 24 25 25 22 19 22 26 28 26 29 31 31 32 32 33 34 35 35 37 35 35 34 32 32 35 nan nan nan nan nan nan nan nan nan nan nan nan nan nan nan nan nan nan nan nan nan nan nan nan nan nan nan nan nan nan nan nan nan nan nan
nan nan nan nan nan nan nan nan nan nan nan 34 32 29 27 nan nan 26 23 22 23 22 21 20 20 23 26 24 26 22 23 29 28 27 27 27 28 28 28 30 35 36 37 36 36 35 37 34 34 33 27 nan nan nan nan nan nan nan nan nan nan nan nan nan nan nan nan nan nan nan nan nan nan nan nan nan nan nan nan nan nan nan nan nan nan
nan nan nan nan nan nan nan nan nan nan nan nan 34 32 29 27 25 24 23 21 nan 22 22 19 20 25 26 25 26 27 28 26 26 28 29 28 29 29 27 26 28 29 29 34 37 37 37 35 34 nan nan nan nan 25 nan nan nan nan nan nan nan nan nan nan nan nan nan nan nan nan nan nan nan nan nan nan nan nan nan nan nan nan nan nan nan
nan nan nan nan nan nan nan nan nan nan nan nan nan nan 31 29 26 23 24 21 21 22 21 19 18 21 27 30 30 28 26 24 22 24 27 29 28 29 32 31 32 33 33 33 35 37 37 36 nan 29 nan nan nan nan 28 34 38 nan nan nan nan nan nan nan nan nan nan nan nan nan nan nan nan nan nan nan nan nan nan nan nan nan nan nan nan
nan nan nan nan nan nan nan nan nan nan nan nan nan nan 33 31 28 24 22 21 nan 21 20 19 19 21 22 25 27 27 26 26 25 25 28 28 30 31 33 37 34 33 35 37 35 37 41 nan nan 30 27 nan nan nan 31 35 nan 36 nan nan nan nan nan nan nan 29 nan nan nan nan nan nan nan nan nan nan nan nan nan nan nan nan nan nan nan
nan nan nan nan nan nan nan nan nan nan nan nan nan nan nan nan nan 24 nan 22 nan nan nan nan 19 nan 21 22 26 28 28 27 28 25 27 28 31 32 32 34 34 37 40 42 41 37 38 37 33 32 32 27 23 27 34 38 39 40 35 34 38 38 35 30 nan nan nan nan nan nan nan nan nan nan nan nan nan nan nan nan nan nan nan nan nan
nan nan nan nan nan nan nan nan nan nan nan nan nan nan nan nan nan nan nan 23 21 nan nan nan nan nan 23 25 25 24 26 32 32 25 23 25 29 36 38 36 34 39 42 39 39 35 37 36 36 36 31 28 26 31 37 41 41 39 38 38 nan 38 nan nan nan nan nan nan nan nan nan nan nan nan nan nan nan nan nan nan nan nan nan nan nan
nan nan nan nan nan nan nan nan nan nan nan nan nan nan nan nan nan nan nan nan nan nan nan nan nan nan 23 26 26 24 25 28 28 25 23 22 33 30 31 29 32 40 41 39 42 44 40 36 34 35 38 34 30 38 43 44 40 37 39 nan nan 37 nan nan nan nan nan nan nan nan 31 nan nan nan nan nan nan nan nan nan nan nan nan nan nan
nan nan nan nan nan nan nan nan nan nan nan nan nan nan nan nan nan nan nan nan nan nan nan nan nan nan nan 29 34 28 25 25 26 26 25 26 28 31 29 32 38 44 41 38 41 47 49 48 45 44 44 45 48 48 48 47 44 39 38 nan nan 41 39 nan nan nan nan nan nan nan nan nan nan nan nan nan nan nan nan nan nan nan nan nan nan
nan nan nan nan nan nan nan nan nan nan nan nan nan nan nan nan nan nan nan nan nan 29 nan nan nan nan nan 34 37 39 35 32 35 36 32 nan nan 30 32 37 41 40 39 39 41 44 46 47 43 44 44 44 44 45 46 50 50 48 43 43 42 nan nan nan nan nan nan nan nan nan nan nan nan nan nan nan nan nan nan nan nan nan nan nan nan
Wind_Direction
317 317 311 310 309 313 306 292 271 280 310 328 320 323 328 317 315 319 310 297 288 293 287 287 291 287 291 303 289 284 289 291 295 298 nan nan nan nan nan nan nan nan nan nan nan nan nan nan nan nan nan nan nan nan nan nan nan nan nan nan nan nan nan nan nan nan nan nan nan nan nan nan nan nan nan nan nan nan nan nan nan nan nan nan nan
325 325 321 313 310 313 307 300 297 288 270 319 321 327 325 314 312 298 297 301 298 287 278 283 289 292 293 285 288 291 290 294 296 294 295 nan nan nan nan nan nan nan nan nan nan nan nan nan nan nan nan nan nan nan nan nan nan nan nan nan nan nan nan nan nan nan nan nan nan nan nan nan nan nan nan nan nan nan nan nan nan nan nan 293 nan
334 334 331 322 317 317 308 306 305 295 282 308 328 322 316 316 299 303 296 289 291 278 283 285 290 290 288 287 300 296 302 295 293 292 289 290 nan nan nan nan nan nan nan nan nan nan nan nan nan nan nan nan nan nan nan nan nan nan nan nan nan nan nan nan nan nan nan nan nan nan nan nan nan nan nan nan nan nan nan nan nan nan 276 292 298
339 339 339 331 323 320 320 320 318 309 294 280 320 320 313 309 300 297 291 291 283 258 263 287 301 300 288 286 292 291 298 297 292 282 nan nan nan nan nan nan nan nan nan nan nan nan nan nan nan nan nan nan nan nan nan nan nan nan nan nan nan nan nan nan nan nan nan nan nan nan nan nan nan nan nan nan nan nan nan nan nan nan nan 300 nan
342 339 338 332 326 327 330 328 313 298 299 296 326 316 308 301 307 299 295 290 281 260 267 295 309 291 288 290 279 285 294 291 281 283 nan nan nan nan nan nan nan 330 337 nan 340 nan nan nan nan 336 nan nan nan nan nan nan nan nan nan nan nan nan nan nan nan nan nan nan nan nan nan nan nan nan nan nan nan nan nan nan nan nan nan nan 316
342 337 341 335 334 335 332 328 326 320 312 306 320 314 307 308 307 304 305 300 295 275 276 296 300 286 275 280 282 286 290 290 288 280 nan nan nan nan nan nan nan nan 331 341 342 339 339 341 341 335 336 340 339 337 nan nan nan nan nan nan nan nan nan nan nan nan nan nan nan nan nan nan nan nan nan nan nan nan nan nan nan nan nan nan 328
336 334 333 333 334 336 335 334 332 321 322 317 313 302 303 307 303 309 308 308 303 288 278 291 295 287 277 278 282 285 283 284 276 277 278 nan nan nan nan nan nan nan nan 322 324 335 343 347 337 332 331 336 341 337 nan nan nan nan nan nan nan nan nan nan 325 315 nan nan nan nan nan nan nan nan nan nan nan nan nan nan nan nan nan nan nan
327 326 325 326 327 330 333 336 335 336 333 320 308 308 309 307 304 308 312 313 311 294 294 296 291 285 277 277 278 281 281 276 284 276 279 273 267 276 287 301 309 319 318 nan 326 332 336 346 334 333 334 336 338 342 339 nan nan nan nan nan nan nan nan 336 329 319 316 319 321 nan nan nan nan nan nan nan nan nan nan 332 nan nan nan nan nan
318 319 321 320 321 324 327 330 333 335 331 319 308 311 309 309 309 310 309 314 319 317 299 285 272 263 274 276 273 275 279 281 282 275 279 281 283 279 273 276 293 316 310 318 324 324 338 338 339 338 339 340 341 340 341 347 346 344 nan nan nan nan 343 340 331 322 323 325 327 334 315 321 324 315 nan nan nan 288 281 299 319 nan nan nan nan
314 317 318 319 318 321 320 325 329 331 328 318 314 313 312 310 308 305 306 307 311 300 296 278 268 252 248 269 269 274 272 277 280 275 274 281 280 282 275 280 290 296 301 313 313 318 325 334 339 340 339 342 345 349 349 352 347 350 346 347 347 352 351 340 332 324 324 329 337 334 321 323 318 314 nan nan nan nan nan nan nan nan nan nan nan
321 321 321 321 320 320 319 320 321 323 324 322 318 316 314 307 303 302 293 292 293 289 288 282 270 253 242 265 266 266 275 271 271 266 273 nan 287 286 289 294 296 304 304 313 313 318 321 324 324 326 331 343 345 352 359 352 347 353 351 353 356 353 349 341 335 323 320 333 332 327 324 327 321 317 311 nan nan nan nan nan nan nan nan nan nan
324 325 323 323 321 321 319 318 318 317 321 321 322 320 315 311 308 302 297 290 291 295 295 282 260 250 240 243 252 242 271 273 271 274 273 274 275 281 291 290 297 299 305 314 313 317 317 319 322 327 325 338 349 353 359 350 349 348 358 356 0 355 347 343 342 331 324 331 325 326 329 330 325 nan nan nan nan nan nan nan nan nan nan nan nan
327 323 323 323 322 321 319 319 318 317 318 319 319 320 316 314 306 301 301 298 296 294 289 273 262 253 252 265 253 255 260 254 268 264 268 272 274 271 271 280 281 285 296 306 310 307 310 315 322 321 314 314 337 356 356 344 350 355 357 358 357 1 348 349 339 328 321 318 326 330 329 330 325 nan nan nan nan nan nan nan nan nan nan nan nan
325 326 323 324 323 322 320 321 319 316 317 313 313 316 318 309 306 308 302 302 299 298 292 278 266 265 259 265 272 269 262 257 256 264 261 266 266 270 265 268 283 278 286 303 304 307 307 310 307 316 314 313 324 322 325 325 334 359 355 355 356 356 348 343 335 317 309 nan nan nan nan 326 nan nan nan nan nan nan nan nan nan nan nan nan nan
324 322 324 325 325 323 321 321 321 320 320 316 310 313 315 310 309 309 305 300 298 296 293 289 277 269 264 257 264 263 262 254 253 246 236 253 251 250 262 275 288 289 291 290 nan 305 301 304 311 318 315 318 320 315 315 315 323 343 343 345 343 352 344 337 328 313 nan nan nan nan 323 316 nan nan nan nan nan nan nan nan nan nan nan nan nan
318 321 320 320 321 322 322 323 323 318 317 316 314 314 314 312 311 310 304 303 302 302 301 293 280 274 nan 270 261 261 262 266 262 254 252 250 257 256 258 277 281 274 nan 286 nan nan 296 301 304 307 310 313 313 312 316 312 314 320 320 326 339 337 337 333 322 305 nan nan nan 315 311 nan nan nan nan nan nan nan nan nan nan nan nan nan nan
316 317 316 318 318 318 321 323 324 323 319 318 317 316 313 310 313 314 313 309 306 303 303 297 288 275 267 264 262 263 259 253 267 253 254 249 258 258 259 272 259 nan 284 nan nan nan 286 297 295 295 293 289 299 301 286 281 287 290 304 319 323 326 333 328 316 309 nan nan nan 305 nan nan nan nan nan nan nan nan nan nan nan nan nan nan nan
311 314 314 314 313 313 314 315 318 318 320 321 319 315 313 309 309 313 316 312 306 305 303 297 288 279 271 262 258 261 261 251 257 252 253 246 247 260 263 248 nan nan nan nan nan nan nan 289 293 296 299 303 310 291 286 288 289 292 293 307 317 323 324 321 318 nan nan nan nan nan nan nan nan nan nan nan nan nan nan nan nan nan nan nan nan
305 310 310 311 311 311 310 311 312 313 313 315 315 314 311 311 307 308 311 310 307 307 307 298 285 274 269 265 261 259 254 256 257 251 253 252 246 243 250 264 nan nan nan nan nan nan nan 286 293 300 304 318 nan 298 296 301 300 299 305 308 316 314 nan nan nan nan nan nan nan nan nan nan nan nan nan nan nan nan nan nan nan nan nan nan nan
307 307 305 308 310 311 312 310 311 312 311 313 314 311 306 306 307 305 305 307 310 311 306 300 297 277 269 267 263 259 254 243 247 252 248 254 254 243 240 253 259 256 269 nan nan nan nan 279 289 293 nan nan nan nan nan nan 293 287 287 nan nan nan nan nan nan nan nan nan nan nan nan nan nan nan nan nan nan nan nan nan nan nan nan nan nan
310 305 305 309 308 311 311 310 310 311 311 311 312 311 312 311 306 303 304 304 305 307 304 305 300 282 269 266 266 261 254 250 246 251 252 240 249 257 246 246 243 245 259 252 nan 269 270 278 nan 288 nan nan nan nan nan nan nan nan nan nan nan nan nan nan nan nan nan nan nan nan nan nan nan nan nan nan nan nan nan nan nan nan nan nan nan
306 306 306 302 301 303 305 308 308 308 309 312 312 311 311 312 309 305 304 305 299 302 306 303 301 288 273 267 271 267 258 250 246 251 249 244 244 249 246 255 258 246 255 254 259 268 272 nan nan nan nan nan nan nan nan nan nan nan nan nan nan nan nan nan nan nan nan nan nan nan nan nan nan nan nan nan nan nan nan nan nan nan nan nan nan
299 301 309 313 310 307 308 310 309 309 310 307 307 306 303 303 304 303 302 303 295 297 299 299 297 292 281 275 277 277 269 261 255 254 252 249 248 nan 237 243 264 257 259 262 262 271 274 nan nan nan nan nan nan nan nan nan nan nan nan nan nan nan nan nan nan nan nan nan nan nan nan nan nan nan nan nan nan nan nan nan nan nan nan nan nan
303 301 305 310 308 307 302 304 305 302 302 302 301 304 301 298 298 295 293 294 291 290 294 296 299 294 287 280 280 276 268 260 255 257 256 250 245 240 251 252 236 242 262 262 262 268 282 275 nan nan nan nan nan nan nan nan nan nan nan nan nan nan nan nan nan nan nan nan nan nan nan nan nan nan nan nan nan nan nan nan nan nan nan nan nan
306 306 306 309 311 313 311 310 305 301 298 301 305 311 304 295 294 294 290 291 288 288 290 294 296 295 289 284 281 278 273 263 257 255 254 255 250 236 232 nan nan 260 263 269 262 265 270 273 nan nan nan nan nan nan nan nan nan nan nan nan nan nan nan nan nan nan nan nan nan nan nan nan nan nan nan nan nan nan nan nan nan nan nan nan nan
305 309 310 309 308 311 311 312 312 309 305 307 310 309 309 298 289 288 291 287 285 292 290 289 289 294 288 284 283 281 273 266 263 256 255 257 254 254 240 nan nan nan 262 263 265 266 265 266 nan nan nan nan nan nan nan nan nan nan nan nan nan nan nan nan nan nan nan nan nan nan nan nan nan nan nan nan nan nan nan nan nan nan nan nan nan
304 306 308 307 305 304 306 309 311 311 309 306 302 302 298 297 293 284 281 283 285 284 277 281 286 290 289 285 283 279 271 267 265 258 252 254 253 250 247 nan nan nan 235 258 264 268 263 269 276 nan nan nan nan nan nan nan nan nan nan nan nan nan nan nan nan nan nan nan nan nan nan nan nan nan nan nan nan nan nan nan nan nan nan nan nan
307 309 308 305 304 307 307 310 311 311 309 308 307 304 299 299 295 286 285 286 285 283 281 281 285 289 288 284 279 280 275 269 265 258 253 253 250 249 nan nan 244 250 255 252 255 260 267 261 265 276 nan nan nan nan nan nan nan nan nan nan nan nan nan nan nan nan nan nan nan nan nan nan nan nan nan nan nan nan nan nan nan nan nan nan nan
300 302 304 303 304 306 309 310 310 311 309 304 306 307 299 298 297 289 281 277 275 278 277 277 280 279 278 284 280 276 275 270 264 258 257 253 248 247 248 245 238 243 257 258 256 259 267 277 272 276 nan nan nan nan nan nan nan nan nan nan nan nan nan nan nan nan nan nan nan nan nan nan nan nan nan nan nan nan nan nan nan nan nan nan nan
290 296 297 299 304 305 307 312 312 310 308 305 305 307 301 290 287 281 276 278 281 282 280 277 275 272 274 278 277 272 272 271 265 259 254 249 245 245 245 241 243 235 244 258 255 258 262 274 270 268 nan nan nan nan nan nan nan nan nan nan nan nan nan nan nan nan nan nan nan nan nan nan nan nan nan nan nan nan nan nan nan nan nan nan nan
291 292 292 292 293 297 303 310 313 310 305 300 298 298 300 301 296 286 280 278 280 283 282 279 273 269 274 279 275 271 272 271 267 263 255 246 241 242 242 244 248 242 243 247 257 253 256 269 267 269 272 nan nan nan nan nan nan nan nan nan nan nan nan nan nan nan nan nan nan nan nan nan nan nan nan nan nan nan nan nan nan nan nan nan nan
nan 291 291 288 286 287 295 304 307 308 298 291 292 292 291 294 291 281 276 279 282 279 277 277 271 271 276 280 274 272 273 271 269 265 258 247 244 245 240 242 241 237 233 242 251 251 nan 265 265 nan nan nan nan nan nan nan nan nan nan nan nan nan nan nan nan nan nan nan nan nan nan nan nan nan nan nan nan nan nan nan nan nan nan nan nan
nan nan 288 287 287 288 289 296 301 303 304 303 302 292 288 285 283 280 279 281 282 280 279 281 280 275 276 276 274 272 272 275 273 265 255 248 243 244 245 243 243 243 249 241 237 nan 256 260 266 nan nan nan nan nan nan nan nan nan nan nan nan nan nan nan nan nan nan nan nan nan nan nan nan nan nan nan nan nan nan nan nan nan nan nan nan
nan nan nan nan 291 288 291 294 303 306 307 306 299 302 299 284 268 270 273 275 272 276 278 276 277 273 273 273 271 268 269 272 270 261 248 243 242 242 242 243 245 244 249 248 241 nan 247 251 260 259 nan nan nan nan nan nan nan nan nan nan nan nan nan nan nan nan nan nan nan nan nan nan nan nan nan nan nan nan nan nan nan nan nan nan nan
nan nan nan nan nan 282 290 296 299 308 312 304 298 299 300 295 283 264 263 272 272 277 279 276 273 271 275 276 271 267 267 271 264 252 239 236 241 241 241 241 238 240 nan 247 244 nan 235 235 244 264 nan nan nan nan nan nan nan nan nan nan nan nan nan nan nan nan nan nan nan nan nan nan nan nan nan nan nan nan nan nan nan nan nan nan nan
nan nan nan nan nan nan nan 286 294 303 307 308 306 302 296 294 285 265 255 263 270 272 275 272 270 269 269 270 270 268 270 269 260 245 237 234 240 244 243 242 243 240 242 243 242 245 240 nan 252 nan nan nan nan nan nan nan nan nan nan nan nan nan nan nan nan nan nan nan nan nan nan nan nan nan nan nan nan nan nan nan nan nan nan nan nan
nan nan nan nan nan nan nan nan 287 291 305 310 312 306 293 287 284 269 257 258 267 267 269 266 262 262 267 268 269 271 270 271 260 243 235 236 240 246 248 247 246 242 240 241 241 241 241 nan nan 256 260 262 nan nan nan nan nan nan nan nan nan nan nan nan nan nan nan nan nan nan nan nan nan nan nan nan nan nan nan nan nan nan nan nan nan
nan nan nan nan nan nan nan nan nan nan 281 283 281 279 273 277 292 289 272 261 267 266 258 260 259 255 254 263 267 264 267 269 253 237 234 239 240 247 253 254 249 242 240 241 243 246 241 nan nan 259 260 261 nan nan nan nan nan nan nan nan nan nan nan nan nan nan nan nan nan nan nan nan nan nan nan nan nan nan nan nan nan nan nan nan nan
nan nan nan nan nan nan nan nan nan nan 283 286 288 286 282 271 264 283 278 262 263 279 264 252 260 260 256 256 261 266 268 265 251 238 236 236 241 247 256 258 253 246 241 241 240 242 243 234 239 254 260 nan nan nan nan nan nan nan nan nan nan nan nan nan nan nan nan nan nan nan nan nan nan nan nan nan nan nan nan nan nan nan nan nan nan
nan nan nan nan nan nan nan nan nan 283 282 281 278 278 nan nan 270 268 274 266 266 279 263 249 259 261 259 261 259 261 267 265 250 238 239 238 238 243 250 255 252 250 244 239 236 238 240 235 237 247 nan nan nan nan nan nan nan nan nan nan nan nan nan nan nan nan nan nan nan nan nan nan nan nan nan nan nan nan nan nan nan nan nan nan nan
nan nan nan nan nan nan nan nan nan nan 279 280 281 nan nan nan nan nan 266 259 262 262 255 244 248 253 256 254 256 260 266 267 263 247 244 244 240 240 246 251 252 252 244 236 233 233 236 237 238 248 nan nan nan nan nan nan nan nan nan nan nan nan nan nan nan nan nan nan nan nan nan nan nan nan nan nan nan nan nan nan nan nan nan nan nan
nan nan nan nan nan nan nan nan nan nan nan 280 nan nan 261 283 nan 284 275 267 261 266 268 266 258 240 241 252 256 254 266 275 273 264 256 255 249 243 245 248 250 254 252 245 240 240 243 244 245 245 nan nan nan nan nan nan nan nan nan nan nan nan nan nan nan nan nan nan nan nan nan nan nan nan nan nan nan nan nan nan nan nan nan nan nan
nan nan nan nan nan nan nan nan nan nan nan 269 246 251 248 nan nan 289 284 275 268 260 262 263 251 248 240 243 250 255 257 252 259 265 260 256 254 252 252 253 252 253 251 250 252 252 250 247 245 243 245 nan nan nan nan nan nan nan nan nan nan nan nan nan nan nan nan nan nan nan nan nan nan nan nan nan nan nan nan nan nan nan nan nan nan
nan nan nan nan nan nan nan nan nan nan nan nan 247 244 243 243 256 281 293 286 nan 265 267 264 246 236 241 244 243 244 254 260 255 257 255 252 251 253 257 257 256 258 252 251 255 256 254 250 245 nan nan nan nan 243 nan nan nan nan nan nan nan nan nan nan nan nan nan nan nan nan nan nan nan nan nan nan nan nan nan nan nan nan nan nan nan
nan nan nan nan nan nan nan nan nan nan nan nan nan nan 239 238 240 257 293 294 286 274 275 273 250 241 248 247 243 244 248 264 259 258 256 249 247 253 260 256 253 258 256 253 259 263 257 252 nan 245 nan nan nan nan 249 257 261 nan nan nan nan nan nan nan nan nan nan nan nan nan nan nan nan nan nan nan nan nan nan nan nan nan nan nan nan
nan nan nan nan nan nan nan nan nan nan nan nan nan nan 236 232 234 248 287 296 nan 281 277 279 263 246 244 248 247 245 248 251 252 252 256 256 254 252 252 250 249 253 255 261 257 253 248 nan nan 243 239 nan nan nan 255 255 nan 265 nan nan nan nan nan nan nan 270 nan nan nan nan nan nan nan nan nan nan nan nan nan nan nan nan nan nan nan
nan nan nan nan nan nan nan nan nan nan nan nan nan nan nan nan nan 246 nan 285 nan nan nan nan 276 nan 254 251 251 249 248 254 251 249 254 257 259 260 261 259 257 257 258 254 252 247 244 246 245 244 245 242 244 251 255 257 258 256 256 258 259 260 260 257 nan nan nan nan nan nan nan nan nan nan nan nan nan nan nan nan nan nan nan nan nan
nan nan nan nan nan nan nan nan nan nan nan nan nan nan nan nan nan nan nan 269 271 nan nan nan nan nan 261 254 252 250 247 250 256 254 249 251 257 255 257 257 256 254 250 242 239 240 238 242 242 246 245 246 238 245 255 260 259 258 258 257 nan 259 nan nan nan nan nan nan nan nan nan nan nan nan nan nan nan nan nan nan nan nan nan nan nan
nan nan nan nan nan nan nan nan nan nan nan nan nan nan nan nan nan nan nan nan nan nan nan nan nan nan 270 259 253 248 250 250 261 273 273 265 258 257 258 256 249 248 246 240 237 236 235 242 251 246 240 255 254 250 254 261 262 264 262 nan nan 260 nan nan nan nan nan nan nan nan 268 nan nan nan nan nan nan nan nan nan nan nan nan nan nan
nan nan nan nan nan nan nan nan nan nan nan nan nan nan nan nan nan nan nan nan nan nan nan nan nan nan nan 249 236 241 246 253 258 272 270 264 263 261 256 252 245 242 244 244 241 237 241 245 249 247 242 246 250 252 256 259 263 265 268 nan nan 259 264 nan nan nan nan nan nan nan nan nan nan nan nan nan nan nan nan nan nan nan nan nan nan
nan nan nan nan nan nan nan nan nan nan nan nan nan nan nan nan nan nan nan nan nan 252 nan nan nan nan nan 252 237 233 231 233 233 239 252 nan nan 256 252 250 248 249 248 249 249 248 246 246 243 248 248 249 248 251 249 249 252 254 255 259 258 nan nan nan nan nan nan nan nan nan nan nan nan nan nan nan nan nan nan nan nan nan nan nan nan